THOR ABLESTAR DEB, 644

Orbit data source: Space-Track

THOR ABLESTAR DEB, 644 is space debris in LEO originally from a launch on Thu, 29 Jun 1961 UTC launched from the Air Force Eastern Test Range (AFETR). Debris objects in space refer to the collection of defunct objects orbiting the Earth. Examples of debris include non-operational satellites, rocket bodies, and fragments generated from explosions, collisions, or faulty payload assembly.

Loading next visibility...
Identifier
644, 1961-015GV
Orbit
LEO
Country
Flag of USUS
Related business
Manufacturer
Unknown
Mission
Spacecraft
Bus & Motor
Unknown
Mass
Unknown
Launch date (UTC)
1961-06-29 (64 years ago)
Launch vehicle
Unknown
Launch site
Air Force Eastern Test Range (AFETR)
Object type
Payload
Rocket body
Debris
Shape & HBR
Unknown shape, 0.1 m
Radar Cross Section
Small (<0.1 m²)

Expand to show TLE details & history
Last TLE update: 7 hours ago

TLE from 7 hours ago
0 THOR ABLESTAR DEB
1 00644U 61015GV  25294.95802110  .00001113  00000-0  14523-2 0  9998
2 00644  67.0963 122.8325 0145561 284.3543 226.9842 13.60976765165310
Epoch: 2025-10-21T22:59Z
TLE epoch observation values (Epoch: 2025-10-21T22:59:33.023Z)
Latitude
27.35598°
Longitude
-85.2542°
Altitude
1,109.079 km
Speed
7.264 km/s
True Right ascension
19h 21m 05s
True Declination
27° 13' 21"
Sunlit
Object was in daylight at epoch
Visualization orbit readout
Latitude
Unknown
Longitude
Unknown
Altitude
Unknown
Speed
Unknown
Apparent Right ascension
Unknown
Apparent Declination
Unknown
Sunlit
N/A
Visualization observer readout
Local Sidereal Time
00:38:03
Azimuth
Unknown
Elevation
Unknown
Doppler factor
Unknown
Orbital elements
Apogee altitude
1,138.369 km
Perigee altitude
922.686 km
Semi-major axis
7,408.664 km
Eccentricity
0.01456
Inclination
67.0963°
RAAN
122.8325°
Arg. of periapsis
284.3543°
True anomaly
225.77966°
Mean anomaly
226.9842°
Eccentric anomaly
226.38043°
Mean motion
3.40356 °/min
Orbital period
105.77 mins
BSTAR
0.0014523

Documentation

Showing up to 5 results
|